RH
73 83 75 59 35 41 43 38 32 34 30 29 22 23 27 22 23 21 27 31 48 57 53 54 44 30 40 43 56 58 64 99 100 100 96 85 75 65 77 79 70 61 53 49 48
64 50 61 66 55 58 52 39 37 33 29 30 24 21 22 21 20 19 19 22 26 36 46 42 46 40 29 46 45 59 63 81 91 99 100 100 92 68 64 72 80 71 56 58 55
77 47 49 65 64 53 40 26 29 24 19 27 27 24 23 22 22 22 20 18 18 22 26 26 26 48 40 27 40 45 58 74 62 84 100 99 97 92 67 60 82 88 86 69 61
47 53 97 93 70 42 30 31 26 22 20 19 18 20 20 19 21 25 22 20 17 20 23 25 28 34 44 31 27 38 48 52 75 74 74 94 100 89 88 71 65 75 89 94 74
89 100 100 75 61 36 26 20 20 16 13 13 12 14 13 13 19 19 20 24 22 20 21 20 24 26 32 34 30 28 38 43 49 55 68 77 82 94 94 65 71 77 64 81 100
100 100 80 55 38 28 26 18 16 16 13 12 10 9 10 11 13 18 15 19 21 25 19 18 22 24 23 29 31 29 27 33 45 48 47 62 72 68 99 81 52 52 78 76 82
98 86 58 45 33 22 23 20 16 16 14 12 12 10 11 17 13 12 13 12 14 19 24 19 18 20 26 26 27 34 35 29 36 41 45 44 55 66 75 72 58 44 66 66 64
79 57 43 33 24 21 20 18 16 14 14 14 13 12 14 17 14 15 14 12 12 13 17 17 19 16 21 28 27 35 37 37 32 33 39 42 44 60 58 57 63 56 48 45 55
50 39 36 29 22 20 17 17 15 14 15 13 12 10 13 16 16 14 16 14 12 13 14 13 16 17 17 24 31 30 39 37 34 30 31 37 41 39 39 48 52 47 48 52 45
34 29 28 22 20 18 17 17 14 14 12 11 10 8 10 12 12 12 13 15 15 14 14 14 14 15 21 23 33 36 32 35 36 28 27 29 34 34 34 36 43 43 41 42 55
32 30 26 24 18 18 16 16 13 13 12 8 10 9 9 10 12 11 11 13 14 14 14 14 13 14 17 33 24 22 26 30 31 31 24 24 26 28 29 31 33 32 31 30 33
28 29 25 19 17 18 14 11 10 10 13 7 8 9 9 9 9 9 10 12 13 14 14 14 14 14 15 21 30 29 25 28 28 28 25 20 22 24 24 27 27 26 26 26 24
30 27 20 19 18 16 12 11 10 10 11 11 9 11 11 10 11 10 10 11 12 13 15 15 15 14 14 15 17 20 25 26 24 22 23 22 19 20 20 20 23 22 23 22 22
26 22 19 18 16 16 14 10 10 11 12 11 11 11 12 12 13 12 11 12 12 13 13 15 16 16 15 15 15 15 16 19 21 22 23 19 18 19 17 16 18 18 18 20 20
23 20 18 16 16 16 13 11 11 13 12 11 10 10 10 11 13 13 13 13 14 13 13 15 15 16 17 17 15 15 16 19 19 19 19 18 18 19 18 16 16 17 17 16 18
23 20 19 19 16 14 13 13 14 12 10 10 10 9 9 9 10 11 12 14 15 14 15 14 16 16 18 17 18 18 16 15 16 16 16 18 18 20 18 18 17 15 15 16 16
22 22 18 18 16 13 13 14 13 11 9 8 9 10 10 9 10 9 11 13 15 15 15 15 16 16 16 16 17 19 19 17 15 15 14 14 14 14 14 15 14 14 15 15 15
23 22 19 18 15 13 14 14 11 10 10 8 10 10 11 10 10 10 10 11 13 15 16 16 16 16 16 16 17 17 18 18 18 17 16 14 12 13 14 14 13 15 17 18 17
25 22 20 19 15 13 14 12 12 10 9 9 10 9 10 10 10 10 11 11 10 12 13 16 17 16 17 17 17 18 18 18 18 18 16 14 13 12 13 14 14 14 16 16 16
26 24 22 19 14 13 13 12 12 10 9 8 9 9 10 10 9 9 10 11 10 10 12 16 18 18 18 19 19 19 18 18 18 18 17 16 14 13 13 14 14 13 12 11 11
27 22 22 19 15 14 13 12 12 10 9 9 10 10 10 11 11 8 8 10 11 11 11 13 15 17 17 19 19 18 18 18 17 17 16 14 13 13 14 15 14 12 11 11 11
26 22 21 18 15 14 12 12 12 10 11 11 13 12 12 13 12 10 9 10 12 13 13 12 14 15 16 18 18 18 17 17 17 16 15 14 14 14 14 14 13 12 12 12 11
25 23 20 18 15 13 12 12 11 10 12 12 13 12 13 14 12 11 9 11 16 14 15 17 17 15 15 19 19 17 17 17 17 16 16 14 16 15 15 12 12 12 11 11 10
24 23 20 16 15 13 12 12 10 11 11 11 11 11 12 14 12 10 9 9 10 11 13 16 16 16 18 19 18 17 17 16 16 15 13 13 13 13 12 12 11 10 10 10 9
25 22 18 18 14 12 12 12 10 12 10 10 11 10 11 14 10 10 10 11 11 12 13 14 16 17 18 19 18 17 17 15 14 12 14 13 14 14 11 10 10 9 9 8 8
22 22 17 17 14 12 12 12 10 11 9 10 12 11 11 14 10 9 9 11 12 13 14 14 15 16 20 22 20 17 14 13 13 17 19 14 12 10 8 8 8 8 8 7 7
22 20 17 17 14 12 12 11 10 10 10 10 12 11 10 13 10 9 9 12 15 16 16 18 18 19 21 22 18 14 13 15 20 20 15 11 9 9 9 9 8 8 8 8 8
Wind_Speed
64 72 72 75 79 82 85 86 87 89 91 93 92 88 82 81 77 75 77 74 80 80 76 74 68 73 72 70 70 69 69 68 71 73 71 68 64 62 59 60 59 56 55 54 50
70 75 78 82 87 88 94 95 96 94 92 93 91 90 87 80 78 80 79 75 76 79 82 84 83 70 75 78 73 72 69 74 74 73 72 71 69 67 65 63 63 59 59 58 54
74 82 82 86 91 100 100 97 94 88 84 85 90 88 82 82 80 86 85 76 79 80 78 79 77 83 76 80 81 78 74 78 75 76 74 74 72 71 69 67 64 63 61 62 59
87 89 86 96 102 107 106 102 92 91 89 82 86 88 87 82 82 90 90 84 81 82 81 81 80 78 85 79 85 81 79 79 79 76 75 76 77 76 73 73 69 67 65 65 64
88 90 100 106 113 115 99 90 89 89 81 77 78 79 80 81 80 90 86 91 90 84 86 82 82 81 84 86 85 83 85 84 83 78 77 79 81 78 77 77 75 72 70 68 68
92 101 109 114 115 110 100 93 91 86 79 78 73 70 67 65 77 87 88 88 95 94 89 88 88 85 80 88 87 86 86 89 87 83 82 82 83 77 79 85 77 74 74 74 75
103 106 115 121 113 106 101 98 88 84 81 80 78 71 67 75 72 71 76 82 87 87 91 95 90 89 88 88 90 90 90 92 91 89 86 87 83 80 86 82 82 78 77 79 78
106 112 117 114 104 101 96 91 87 83 81 82 77 73 69 75 70 69 70 74 74 78 81 89 94 97 89 91 88 94 93 91 94 98 90 90 83 89 88 85 85 80 81 79 80
113 112 106 108 104 93 89 84 84 79 78 76 71 66 65 72 71 70 69 72 71 71 77 82 89 95 95 91 91 94 93 95 104 102 98 93 89 95 91 90 90 87 82 82 81
108 106 105 103 96 89 85 81 81 75 74 69 66 59 61 63 66 66 66 71 71 70 72 75 78 82 86 89 87 96 98 94 96 102 103 101 100 100 99 96 96 93 87 85 85
103 105 101 96 92 87 78 73 68 69 77 63 55 57 59 60 64 63 64 66 68 68 71 75 73 67 81 94 91 89 89 91 95 98 104 104 104 106 103 101 99 98 95 92 90
102 96 95 89 86 79 75 68 65 59 63 66 56 51 55 56 59 60 62 61 67 70 71 69 68 77 79 84 88 88 87 91 98 100 102 105 107 108 108 105 104 101 101 98 95
88 87 88 83 80 75 70 67 65 60 53 56 52 47 47 47 55 57 59 62 64 66 67 66 67 70 69 72 77 81 86 91 99 99 98 99 106 111 111 107 108 109 106 103 100
87 86 85 77 75 72 71 69 62 54 47 46 44 42 43 42 49 53 53 56 58 62 63 65 71 70 69 68 72 74 76 86 90 100 94 98 103 103 109 111 110 109 108 107 104
89 86 82 76 71 70 67 63 58 49 44 44 44 41 41 42 47 46 48 46 52 57 57 64 67 67 68 70 70 70 72 75 79 87 90 93 96 99 103 107 109 109 109 109 106
90 86 79 79 75 69 65 58 51 48 45 42 43 43 38 41 44 44 44 44 47 51 56 57 61 60 64 68 69 70 69 69 72 74 77 81 84 83 98 102 104 106 108 109 108
91 86 80 78 73 66 61 54 50 48 43 38 37 35 35 34 36 40 42 44 44 46 49 53 58 58 61 63 65 67 67 68 67 68 66 73 72 74 85 94 99 104 107 106 107
92 88 83 80 73 63 56 53 50 44 38 33 29 26 28 31 31 33 40 44 44 42 45 47 50 54 55 57 59 62 63 63 64 67 67 69 68 71 76 79 85 94 100 105 106
93 89 87 82 72 62 54 51 47 40 33 24 24 24 24 29 29 29 33 42 44 42 44 45 47 49 52 54 54 55 56 59 58 61 62 65 68 72 75 76 76 79 87 95 96
93 88 86 81 71 62 54 48 43 36 28 21 23 23 23 27 27 28 28 33 41 44 45 45 46 47 48 50 51 52 52 52 54 55 57 60 63 66 65 67 71 73 76 79 80
94 86 85 79 70 61 56 47 37 32 28 23 22 22 22 23 25 28 24 26 31 39 43 46 47 48 46 47 48 48 48 48 50 49 52 55 56 58 56 56 61 68 73 75 75
94 88 82 77 67 62 56 45 33 29 27 21 20 20 18 20 22 23 20 22 24 29 37 39 43 47 45 44 45 45 45 45 43 44 46 48 48 47 47 50 55 62 66 67 71
93 91 82 73 68 61 52 41 30 28 24 18 18 17 15 17 20 22 23 23 27 31 33 35 43 45 44 43 43 42 41 39 40 41 42 42 41 41 47 52 54 56 58 61 61
93 87 82 71 67 59 49 36 29 27 21 18 16 15 14 16 19 20 23 25 29 31 31 33 38 43 45 44 42 40 38 37 37 36 33 34 38 45 48 49 51 49 49 49 49
92 86 75 70 65 54 45 34 26 24 19 15 15 15 14 17 18 18 20 21 23 28 31 32 34 38 42 44 44 41 38 35 32 29 30 36 41 40 41 40 38 39 39 40 41
90 82 75 68 63 51 42 31 25 21 17 15 14 14 13 16 17 16 18 19 20 22 24 27 31 32 35 41 43 41 37 34 30 27 33 35 33 34 28 30 29 29 31 31 30
88 81 73 66 59 48 38 29 23 20 17 13 12 13 13 15 17 17 17 19 20 21 21 22 25 28 34 40 42 39 35 29 27 29 27 27 27 24 25 25 26 25 23 23 23
Wind_Direction
299 298 295 297 300 298 298 297 294 291 290 287 282 279 274 272 270 272 264 264 259 260 257 255 255 251 246 247 248 244 243 240 241 244 246 245 242 239 239 241 242 240 242 243 245
302 303 300 297 294 295 297 297 295 293 291 285 281 277 275 272 270 271 261 263 259 256 259 260 257 250 249 247 245 247 242 241 239 242 242 243 242 241 237 239 240 238 240 242 242
299 302 300 296 298 298 298 295 296 290 283 282 275 276 274 273 271 273 268 262 255 254 251 254 256 254 248 246 245 242 244 242 241 240 242 240 241 241 241 237 237 238 237 241 241
304 301 296 296 298 300 301 299 294 291 284 283 271 269 268 267 269 269 266 260 257 260 257 253 252 254 247 243 242 243 241 242 243 240 240 241 241 240 240 240 238 236 235 238 242
301 296 298 301 301 302 304 301 296 297 282 282 273 267 267 264 264 257 257 260 260 256 255 250 251 247 248 239 239 239 240 240 241 242 241 240 239 241 242 243 240 238 239 239 241
299 301 302 302 302 304 306 306 301 297 289 284 284 269 271 269 258 256 252 253 253 252 249 247 246 247 242 241 237 236 239 241 240 240 240 242 241 239 242 243 244 243 239 240 241
302 301 303 305 306 308 306 304 300 294 291 288 286 281 280 267 263 260 255 248 243 244 248 248 243 240 240 240 238 236 237 239 240 238 238 241 242 242 241 244 244 242 242 241 243
304 305 306 305 308 309 303 299 295 292 289 286 283 278 274 268 267 263 258 250 246 243 246 245 243 235 239 242 241 236 235 237 240 237 238 239 240 242 241 242 243 242 242 243 245
306 307 305 304 307 304 302 298 295 294 289 286 281 279 271 266 263 261 257 255 249 247 246 243 242 240 236 237 240 238 235 236 237 238 236 236 237 241 242 241 242 242 240 242 244
310 308 305 305 308 303 301 297 295 296 288 284 282 279 273 268 261 257 253 250 249 246 246 246 242 240 237 235 237 236 233 233 238 237 237 236 234 239 240 241 241 242 241 241 242
309 310 307 308 305 303 301 298 299 299 294 289 281 277 266 260 256 253 250 248 247 245 243 243 242 243 235 233 232 234 234 233 235 236 235 236 236 238 239 241 240 240 240 239 240
310 308 309 309 308 306 302 301 298 295 289 291 285 272 268 263 259 254 247 244 243 241 240 240 241 241 236 232 234 237 238 238 235 234 235 235 236 239 240 241 242 243 242 242 240
315 312 313 312 311 309 307 306 306 302 292 285 281 273 263 262 255 253 247 242 238 237 239 238 237 240 239 237 236 241 241 237 235 235 235 237 237 238 241 242 244 244 245 246 245
318 317 316 316 315 316 314 311 310 303 292 284 278 269 261 256 252 249 247 242 239 239 234 235 236 236 236 238 238 240 240 239 239 235 234 237 238 239 242 243 243 246 247 245 246
320 319 319 318 320 317 314 313 309 302 291 284 278 269 260 252 249 248 247 241 239 236 235 235 235 234 235 236 237 239 238 236 235 237 238 239 239 241 242 242 243 244 245 246 247
321 322 323 325 321 320 317 315 309 300 295 288 279 276 267 255 250 246 247 242 237 232 232 232 235 234 234 234 234 236 238 238 237 237 239 242 240 239 241 240 243 246 245 245 247
322 324 326 327 322 321 318 315 309 302 297 288 284 277 270 260 250 243 239 238 235 232 232 232 231 231 232 233 233 235 235 237 236 235 234 236 236 236 240 242 243 244 244 245 245
324 327 329 328 324 324 320 317 312 305 298 292 281 272 267 263 254 241 234 234 232 230 230 231 231 232 232 233 234 235 235 236 239 237 234 236 234 232 237 240 241 241 242 243 243
328 330 330 328 325 325 322 321 315 309 300 290 279 272 263 264 260 250 236 231 230 228 229 228 226 227 228 231 232 234 234 234 235 235 236 238 236 233 236 237 239 240 240 242 244
329 332 330 328 326 325 325 325 317 310 300 291 280 273 263 258 256 252 245 237 233 227 224 222 223 226 225 227 228 230 231 232 233 233 234 236 236 236 238 238 238 240 242 243 244
330 333 330 328 327 326 326 325 317 306 301 298 287 275 266 257 249 250 248 241 237 232 227 222 221 223 224 226 227 228 228 229 230 230 233 234 235 237 239 238 238 240 242 244 245
332 331 330 327 327 326 326 322 313 304 302 301 289 277 264 253 246 242 235 232 231 234 232 226 224 224 222 222 224 226 225 226 227 230 231 233 235 239 238 237 236 238 240 242 244
332 330 330 329 327 327 324 319 311 304 301 296 287 278 260 244 235 231 223 211 213 217 221 217 221 223 221 218 220 222 223 224 226 226 227 230 235 232 235 236 235 235 237 241 244
332 329 330 328 327 327 323 317 310 306 301 295 283 274 250 233 226 226 225 218 216 220 220 217 219 217 216 217 218 218 217 218 218 223 224 226 226 229 229 235 238 239 241 244 247
331 329 328 328 327 328 322 314 309 305 298 292 282 267 249 228 221 225 230 229 225 219 217 215 217 216 217 214 214 213 215 213 214 213 218 219 223 228 232 236 240 242 241 241 242
329 329 328 329 326 328 321 312 308 299 294 288 276 259 243 228 228 224 224 227 226 221 219 220 216 215 212 211 211 211 209 209 206 208 218 221 225 230 232 231 230 230 231 234 235
328 327 328 328 326 325 317 310 306 299 295 283 262 253 240 217 224 231 227 218 219 222 216 216 213 207 205 205 206 205 202 201 202 206 210 216 221 220 216 214 217 220 222 221 215